Regional Weather Roundup
Issued by NWS

Home | Current Version | Previous Version | Graphics & Text | Print | Product List | Glossary On
Versions: 1 2 3 4 5 6 7 8 9 10 11 12 13 14 15 16 17 18 19 20 21 22 23 24 25 26 27 28 29 30 31 32 33 34 35 36 37 38 39 40 41 42 43 44 45 46 47 48 49 50
000
ASUS43 KBIS 312320
RWRND

NORTH DAKOTA REGIONAL WEATHER ROUNDUP
NATIONAL WEATHER SERVICE BISMARCK ND
600 PM CDT THU JUL 31 2014

NOTE: "FAIR" INDICATES FEW OR NO CLOUDS BELOW 12,000 FEET WITH NO
SIGNIFICANT WEATHER AND/OR OBSTRUCTIONS TO VISIBILITY.


NDZ001>003-009>011-017-010000-
NORTHWEST NORTH DAKOTA

CITY           SKY/WX    TMP DP  RH WIND       PRES   REMARKS
WILLISTON      SUNNY     90  54  29 E10       30.00F
MINOT          SUNNY     81  53  37 S6        30.05S
MINOT AFB      SUNNY     81  55  41 CALM      30.04F
$$

NDZ018>021-031>035-040>046-010000-
SOUTHWEST NORTH DAKOTA

CITY           SKY/WX    TMP DP  RH WIND       PRES   REMARKS
BISMARCK       SUNNY     86  49  27 E5        30.05F
DICKINSON      SUNNY     86  54  33 SE10      30.04F
GARRISON         N/A     81  55  40 CALM      30.06F
HETTINGER ARPT SUNNY     87  51  28 MISG      30.08F
$$

NDZ004>008-012>016-024-026-027-054-010000-
NORTHEAST NORTH DAKOTA

CITY           SKY/WX    TMP DP  RH WIND       PRES   REMARKS
GRAND FORKS    MOSUNNY   83  61  47 NW5       29.99F
GRND FRKS AFB  PTSUNNY   78  65  63 N5        30.01S
DEVILS LAKE    SUNNY     81  55  41 NW7       30.02F
$$

NDZ022-023-025-028>030-036>039-047>053-010000-
SOUTHEAST NORTH DAKOTA

CITY           SKY/WX    TMP DP  RH WIND       PRES   REMARKS
FARGO          SUNNY     83  58  42 N5        30.00F
JAMESTOWN      SUNNY     82  57  42 N3        30.04F
$$



USA.gov is the U.S. government's official web portal to all federal, state and local government web resources and services.